Location: Recife
(8.0585°S, 34.8848°W)
Time: 21:40:41
(UTC-03:00)

Tiros 1 - Pass Details

Date: 21 April 2026
Orbit: 618 x 649 km, 48.4° (Epoch: 19 May)

Event Time Altitude Azimuth Distance (km) Brightness Sun altitude
Exits shadow 04:14:12 17° 207° (SSW) 1,584 8.8 -17.2°
Maximum altitude 04:17:38 60° 130° (SE) 708 7.5 -16.4°
Drops below altitude 10° 04:22:06 10° 50° (NE) 1,971 10.6 -15.3°
Sets 04:24:25 0° 46° (NE) 2,871 11.5 -14.8°
